FW5818 Weather Reports


time (UTC)temp
C
wind
direction
speed
KPH
gust
KPH
rain 1hr
cm
rain 24hr
cm
rain mn
cm
humidity
%
barometer
mb
20260510071543 17 0 0.0 0.0 0.00 0.00 0.00 92 1013.8
20260510070050 17 0 0.0 0.0 0.00 0.00 0.00 92 1013.8
20260510064605 17 0 0.0 0.0 0.00 0.00 0.00 92 1013.9
20260510063048 17 0 0.0 0.0 0.00 0.00 0.00 92 1013.9
20260510061550 17 0 0.0 0.0 0.00 0.00 0.00 92 1014.1
20260510060046 17 0 0.0 0.0 0.00 0.00 0.00 92 1014.1
20260510054544 17 0 0.0 0.0 0.00 0.00 0.00 91 1013.8
20260510053048 17 0 0.0 0.0 0.00 0.00 0.00 91 1013.8
20260510051547 17 0 0.0 0.0 0.00 0.00 0.00 91 1013.5
20260510050044 17 0 0.0 0.0 0.00 0.00 0.00 90 1013.4
20260510044553 17 0 0.0 0.0 0.00 0.00 0.00 90 1013.3
20260510043047 17 0 0.0 0.0 0.00 0.00 0.00 88 1013.4
20260510041559 17 0 0.0 0.0 0.00 0.00 0.00 88 1013.3
20260510040047 17 0 0.0 0.0 0.00 0.00 0.00 88 1013.2
20260510034557 18 0 0.0 0.0 0.00 0.00 0.00 88 1013.2
20260510033047 18 0 0.0 0.0 0.00 0.00 0.00 87 1013.2
20260510031551 18 0 0.0 0.0 0.00 0.00 0.00 86 1013.0
20260510030056 18 0 0.0 0.0 0.00 0.00 0.00 85 1012.9
20260510024552 18 0 0.0 0.0 0.00 0.00 0.00 84 1012.7
20260510023048 18 0 0.0 0.0 0.00 0.00 0.00 83 1012.5
20260510021548 19 0 0.0 0.0 0.00 0.00 0.00 82 1012.3
20260510020050 20 0 0.0 0.0 0.00 0.00 0.00 82 1012.2
20260510014547 20 0 0.0 0.0 0.00 0.00 0.00 80 1012.0
20260510013052 21 0 0.0 0.0 0.00 0.00 0.00 80 1011.9
20260510011545 21 0 0.0 0.0 0.00 0.00 0.00 79 1011.7
20260510010047 22 0 0.0 0.0 0.00 0.00 0.00 77 1011.6
20260510004547 22 0 0.0 0.0 0.00 0.00 0.00 76 1011.5
20260510003054 23 0 0.0 0.0 0.00 0.00 0.00 74 1011.2
20260510001549 24 0 0.0 1.6 0.00 0.00 0.00 73 1011.1
20260510000058 25 107 0.0 3.2 0.00 0.00 0.00 70 1011.0
20260509234602 25 0 0.0 3.2 0.00 0.00 0.00 68 1010.8
20260509233054 26 154 1.6 9.7 0.00 0.00 0.00 65 1010.7
20260509231604 26 0 0.0 6.4 0.00 0.00 0.00 62 1010.7
20260509230120 27 12 0.0 11.3 0.00 0.00 0.00 61 1010.6
20260509224546 27 5 0.0 6.4 0.00 0.00 0.00 62 1010.5
20260509223044 27 82 0.0 9.7 0.00 0.00 0.00 62 1010.4
20260509221544 27 157 0.0 4.8 0.00 0.00 0.00 60 1010.3
20260509220047 28 0 1.6 9.7 0.00 0.00 0.00 57 1010.3
20260509214546 28 84 0.0 6.4 0.00 0.00 0.00 56 1010.3
20260509213053 28 0 1.6 6.4 0.00 0.00 0.00 51 1010.2
20260509211552 28 134 0.0 4.8 0.00 0.00 0.00 52 1010.3
20260509210104 27 0 0.0 4.8 0.00 0.00 0.00 57 1010.5
20260509204545 27 0 0.0 6.4 0.00 0.00 0.00 54 1010.7
20260509203049 28 0 0.0 6.4 0.00 0.00 0.00 51 1010.7
20260509201555 28 190 0.0 6.4 0.00 0.00 0.00 51 1011.0
20260509200050 28 155 1.6 8.0 0.00 0.00 0.00 52 1011.1
20260509194548 27 0 0.0 8.0 0.00 0.00 0.00 56 1011.2
20260509193053 27 150 0.0 4.8 0.00 0.00 0.00 55 1011.4
20260509191546 27 124 1.6 8.0 0.00 0.00 0.00 56 1011.3
20260509190100 27 0 0.0 4.8 0.00 0.00 0.00 57 1011.4
20260509184546 27 0 0.0 6.4 0.00 0.00 0.00 55 1011.5
20260509183047 26 129 0.0 6.4 0.00 0.00 0.00 59 1011.6
20260509181549 26 5 1.6 11.3 0.00 0.00 0.00 58 1011.7
20260509180100 26 0 3.2 9.7 0.00 0.00 0.00 60 1011.7
20260509174545 26 243 1.6 11.3 0.00 0.00 0.00 60 1011.9
20260509173041 26 255 3.2 8.0 0.00 0.00 0.00 62 1012.0
20260509171548 26 101 1.6 12.9 0.00 0.00 0.00 62 1011.8
20260509170059 25 53 3.2 9.7 0.00 0.00 0.00 66 1012.0
20260509164615 25 71 3.2 11.3 0.00 0.00 0.00 68 1011.9
20260509163056 24 213 3.2 12.9 0.00 0.00 0.00 69 1011.8
20260509161552 23 0 3.2 16.1 0.00 0.00 0.00 70 1011.8
20260509160046 23 217 3.2 11.3 0.00 0.00 0.00 73 1012.0
20260509154550 22 262 1.6 9.7 0.00 0.00 0.00 76 1011.9
20260509153050 22 217 1.6 8.0 0.00 0.00 0.00 76 1011.8
20260509151547 21 205 3.2 6.4 0.00 0.00 0.00 76 1011.9
20260509150104 21 0 1.6 4.8 0.00 0.00 0.00 81 1011.9
20260509144548 20 0 1.6 6.4 0.00 0.00 0.00 81 1012.0
20260509143053 19 5 3.2 4.8 0.00 0.00 0.00 85 1012.0
20260509141546 18 0 0.0 3.2 0.00 0.00 0.00 90 1012.3
20260509134545 16 0 0.0 0.0 0.00 0.00 0.00 95 1012.5
20260509133058 16 0 0.0 1.6 0.00 0.00 0.00 96 1012.4
20260509131543 15 0 0.0 0.0 0.00 0.00 0.00 96 1012.3
20260509130053 14 0 0.0 0.0 0.00 0.00 0.00 96 1012.1
20260509124554 13 0 0.0 0.0 0.00 0.00 0.00 96 1012.1
20260509123045 13 0 0.0 0.0 0.00 0.00 0.00 96 1012.1
20260509121555 12 0 0.0 0.0 0.00 0.00 0.00 94 1012.0
20260509120049 12 0 0.0 0.0 0.00 0.00 0.00 93 1011.8
20260509114558 12 0 0.0 0.0 0.00 0.00 0.00 93 1011.4
20260509113045 12 0 0.0 0.0 0.00 0.00 0.00 93 1011.2
20260509111543 12 0 0.0 0.0 0.00 0.00 0.00 92 1010.9
20260509110049 12 0 0.0 0.0 0.00 0.00 0.00 92 1010.6
20260509104547 12 0 0.0 0.0 0.00 0.00 0.00 92 1010.2
20260509103048 12 0 0.0 0.0 0.00 0.00 0.00 92 1010.1
20260509101547 12 0 0.0 0.0 0.00 0.00 0.00 91 1010.2
20260509100047 13 0 0.0 0.0 0.00 0.00 0.00 91 1010.2
20260509094549 13 0 0.0 0.0 0.00 0.00 0.00 90 1009.9
20260509093041 13 0 0.0 0.0 0.00 0.00 0.00 90 1010.1
20260509091555 14 0 0.0 0.0 0.00 0.00 0.00 90 1010.3
20260509090100 14 0 0.0 0.0 0.00 0.00 0.00 89 1010.3
20260509084547 15 0 0.0 0.0 0.00 0.00 0.00 89 1010.3
20260509083053 15 0 0.0 3.2 0.00 0.00 0.00 89 1010.0
20260509081549 15 0 0.0 8.0 0.00 0.00 0.00 88 1009.9
20260509080104 15 225 0.0 4.8 0.00 0.00 0.00 87 1010.0
20260509074547 15 0 0.0 4.8 0.00 0.00 0.00 87 1010.3
20260509073042 16 0 0.0 6.4 0.00 0.00 0.00 87 1010.4